When you browse on this site, cookies collect data to enhance your experience and personalize the content and advertising you see.
Visit our Privacy Policy to learn more. By continuing to use the site, you agree to this use of cookies and data.
  • In United Kingdom
  • List of Countries
  • For 7 days
  • Water Temperature
  • Weather Map
  • Weather Widgets
  • user-avatar
    Login

    Hourly Weather Djibouti

    Today, 16 September, Monday

    Time Temperature Precipitation Wind Pressure Humidity
    00:00 +38°C° 0 mm 2 mps 753 mmHg 46%
    01:00 +38°C° 0 mm 2 mps 752 mmHg 45%
    02:00 +37°C° 0 mm 2 mps 752 mmHg 43%
    03:00 +37°C° 0 mm 1 mps 752 mmHg 41%
    04:00 +37°C° 0.1 mm 2 mps 752 mmHg 42%
    05:00 +36°C° 0.1 mm 4 mps 753 mmHg 44%
    06:00 +36°C° 0.1 mm 5 mps 753 mmHg 45%
    07:00 +37°C° 0.1 mm 5 mps 754 mmHg 42%
    08:00 +40°C° 0.1 mm 6 mps 754 mmHg 38%
    09:00 +41°C° 0.1 mm 6 mps 755 mmHg 35%
    10:00 +42°C° 0 mm 5 mps 754 mmHg 33%
    11:00 +43°C° 0 mm 4 mps 754 mmHg 31%
    12:00 +43°C° 0 mm 4 mps 753 mmHg 29%
    13:00 +43°C° 0.1 mm 4 mps 753 mmHg 32%
    14:00 +42°C° 0.1 mm 4 mps 752 mmHg 35%
    15:00 +41°C° 0.1 mm 4 mps 751 mmHg 38%
    16:00 +41°C° 0 mm 4 mps 751 mmHg 37%
    17:00 +40°C° 0 mm 3 mps 751 mmHg 35%
    18:00 +40°C° 0 mm 3 mps 751 mmHg 34%
    19:00 +40°C° 0 mm 2 mps 752 mmHg 37%
    20:00 +39°C° 0 mm 2 mps 752 mmHg 40%
    21:00 +37°C° 0 mm 1 mps 753 mmHg 43%
    22:00 +38°C° 0 mm 2 mps 753 mmHg 44%
    23:00 +38°C° 0 mm 2 mps 753 mmHg 44%

    Tomorrow, 17 September, Tuesday

    Time Temperature Precipitation Wind Pressure Humidity
    00:00 +38°C° 0 mm 2 mps 753 mmHg 45%
    01:00 +36°C° 0 mm 1 mps 752 mmHg 45%
    02:00 +36°C° 0 mm 1 mps 752 mmHg 46%
    03:00 +36°C° 0 mm 1 mps 752 mmHg 46%
    04:00 +36°C° 0 mm 1 mps 752 mmHg 46%
    05:00 +35°C° 0 mm 1 mps 753 mmHg 46%
    06:00 +35°C° 0 mm 1 mps 753 mmHg 46%
    07:00 +37°C° 0 mm 2 mps 754 mmHg 42%
    08:00 +38°C° 0 mm 2 mps 754 mmHg 39%
    09:00 +40°C° 0 mm 2 mps 754 mmHg 35%
    10:00 +41°C° 0.1 mm 2 mps 754 mmHg 33%
    11:00 +43°C° 0.1 mm 3 mps 754 mmHg 31%
    12:00 +44°C° 0.1 mm 3 mps 753 mmHg 29%
    13:00 +44°C° 0.1 mm 3 mps 752 mmHg 28%
    14:00 +44°C° 0.1 mm 3 mps 751 mmHg 27%
    15:00 +45°C° 0.1 mm 3 mps 751 mmHg 26%
    16:00 +43°C° 0 mm 3 mps 751 mmHg 30%
    17:00 +42°C° 0 mm 4 mps 751 mmHg 35%
    18:00 +41°C° 0 mm 4 mps 751 mmHg 39%
    19:00 +40°C° 0 mm 4 mps 752 mmHg 41%
    20:00 +38°C° 0 mm 4 mps 752 mmHg 43%
    21:00 +38°C° 0 mm 3 mps 753 mmHg 45%
    22:00 +37°C° 0 mm 4 mps 753 mmHg 43%
    23:00 +37°C° 0 mm 4 mps 752 mmHg 41%

    Day after tomorrow, 18 September, Wednesday

    Time Temperature Precipitation Wind Pressure Humidity
    00:00 +37°C° 0 mm 5 mps 752 mmHg 39%
    01:00 +37°C° 0 mm 4 mps 752 mmHg 39%
    02:00 +38°C° 0 mm 3 mps 752 mmHg 40%
    03:00 +38°C° 0 mm 3 mps 751 mmHg 40%
    04:00 +38°C° 0 mm 2 mps 752 mmHg 40%
    05:00 +37°C° 0 mm 2 mps 752 mmHg 40%
    06:00 +37°C° 0 mm 2 mps 753 mmHg 40%
    07:00 +38°C° 0 mm 2 mps 753 mmHg 37%
    08:00 +39°C° 0 mm 3 mps 753 mmHg 34%
    09:00 +42°C° 0 mm 3 mps 754 mmHg 31%
    10:00 +42°C° 0 mm 3 mps 754 mmHg 30%
    11:00 +43°C° 0 mm 3 mps 753 mmHg 28%
    12:00 +44°C° 0 mm 3 mps 753 mmHg 27%
    13:00 +44°C° 0 mm 4 mps 752 mmHg 26%
    14:00 +45°C° 0 mm 4 mps 751 mmHg 24%
    15:00 +46°C° 0 mm 5 mps 751 mmHg 23%
    16:00 +43°C° 0 mm 5 mps 751 mmHg 29%
    17:00 +41°C° 0 mm 5 mps 751 mmHg 36%
    18:00 +40°C° 0 mm 5 mps 751 mmHg 42%
    19:00 +38°C° 0 mm 4 mps 752 mmHg 45%
    20:00 +37°C° 0 mm 4 mps 752 mmHg 48%
    21:00 +37°C° 0 mm 3 mps 753 mmHg 51%
    22:00 +37°C° 0 mm 3 mps 753 mmHg 50%
    23:00 +37°C° 0 mm 3 mps 753 mmHg 48%

    19 September, Thursday

    Time Temperature Precipitation Wind Pressure Humidity
    00:00 +37°C° 0 mm 2 mps 753 mmHg 47%
    01:00 +37°C° 0 mm 2 mps 752 mmHg 46%
    02:00 +37°C° 0 mm 2 mps 752 mmHg 46%
    03:00 +37°C° 0 mm 2 mps 752 mmHg 46%
    04:00 +37°C° 0 mm 2 mps 752 mmHg 46%
    05:00 +37°C° 0 mm 2 mps 753 mmHg 47%
    06:00 +36°C° 0 mm 2 mps 753 mmHg 47%
    07:00 +38°C° 0 mm 2 mps 753 mmHg 43%
    08:00 +39°C° 0 mm 2 mps 754 mmHg 39%
    09:00 +40°C° 0 mm 1 mps 754 mmHg 34%
    10:00 +42°C° 0 mm 3 mps 753 mmHg 34%
    11:00 +42°C° 0 mm 4 mps 753 mmHg 34%
    12:00 +42°C° 0 mm 5 mps 752 mmHg 34%
    13:00 +43°C° 0 mm 5 mps 751 mmHg 34%
    14:00 +43°C° 0 mm 5 mps 751 mmHg 33%
    15:00 +43°C° 0 mm 5 mps 750 mmHg 33%
    16:00 +42°C° 0 mm 4 mps 750 mmHg 36%
    17:00 +39°C° 0 mm 3 mps 750 mmHg 40%
    18:00 +38°C° 0 mm 2 mps 750 mmHg 43%
    19:00 +38°C° 0 mm 2 mps 751 mmHg 44%
    20:00 +37°C° 0 mm 2 mps 751 mmHg 45%
    21:00 +37°C° 0 mm 2 mps 752 mmHg 46%
    22:00 +36°C° 0 mm 1 mps 752 mmHg 44%
    23:00 +36°C° 0 mm 1 mps 751 mmHg 43%

    20 September, Friday

    Time Temperature Precipitation Wind Pressure Humidity
    00:00 +36°C° 0 mm 1 mps 751 mmHg 42%
    01:00 +36°C° 0 mm 1 mps 751 mmHg 42%
    02:00 +36°C° 0 mm 1 mps 751 mmHg 42%
    03:00 +36°C° 0 mm 1 mps 750 mmHg 42%
    04:00 +36°C° 0 mm 1 mps 751 mmHg 42%
    05:00 +37°C° 0 mm 2 mps 751 mmHg 43%
    06:00 +36°C° 0 mm 2 mps 752 mmHg 43%
    07:00 +37°C° 0 mm 2 mps 752 mmHg 42%
    08:00 +38°C° 0 mm 2 mps 752 mmHg 41%
    09:00 +38°C° 0 mm 2 mps 753 mmHg 40%
    10:00 +40°C° 0 mm 2 mps 752 mmHg 38%
    11:00 +42°C° 0 mm 3 mps 751 mmHg 35%
    12:00 +43°C° 0 mm 3 mps 751 mmHg 33%
    13:00 +43°C° 0 mm 4 mps 750 mmHg 34%
    14:00 +43°C° 0 mm 5 mps 750 mmHg 35%
    15:00 +42°C° 0 mm 5 mps 749 mmHg 36%
    16:00 +41°C° 0 mm 4 mps 749 mmHg 42%
    17:00 +38°C° 0 mm 4 mps 749 mmHg 48%
    18:00 +36°C° 0 mm 3 mps 749 mmHg 53%
    19:00 +36°C° 0 mm 2 mps 750 mmHg 52%
    20:00 +36°C° 0 mm 2 mps 750 mmHg 51%
    21:00 +35°C° 0 mm 1 mps 751 mmHg 50%
    22:00 +35°C° 0 mm 1 mps 751 mmHg 51%
    23:00 +35°C° 0 mm 1 mps 750 mmHg 51%

    21 September, Saturday

    Time Temperature Precipitation Wind Pressure Humidity
    00:00 +35°C° 0 mm 1 mps 750 mmHg 51%
    01:00 +34°C° 0 mm 1 mps 750 mmHg 52%
    02:00 +34°C° 0 mm 1 mps 750 mmHg 53%
    03:00 +34°C° 0 mm 1 mps 750 mmHg 54%
    04:00 +34°C° 0 mm 1 mps 750 mmHg 55%
    05:00 +33°C° 0 mm 1 mps 751 mmHg 56%
    06:00 +34°C° 0 mm 2 mps 751 mmHg 57%
    07:00 +35°C° 0 mm 2 mps 752 mmHg 52%
    08:00 +37°C° 0 mm 3 mps 752 mmHg 46%
    09:00 +38°C° 0 mm 3 mps 753 mmHg 41%
    10:00 +39°C° 0 mm 3 mps 752 mmHg 40%
    11:00 +41°C° 0 mm 4 mps 752 mmHg 39%
    12:00 +41°C° 0 mm 4 mps 751 mmHg 38%
    13:00 +42°C° 0 mm 4 mps 750 mmHg 38%
    14:00 +42°C° 0 mm 4 mps 750 mmHg 37%
    15:00 +43°C° 0 mm 4 mps 749 mmHg 37%
    16:00 +40°C° 0 mm 3 mps 749 mmHg 39%
    17:00 +39°C° 0 mm 3 mps 749 mmHg 42%
    18:00 +38°C° 0 mm 2 mps 749 mmHg 45%
    19:00 +37°C° 0 mm 3 mps 750 mmHg 51%
    20:00 +36°C° 0 mm 3 mps 751 mmHg 58%
    21:00 +35°C° 0 mm 4 mps 751 mmHg 65%
    22:00 +35°C° 0 mm 3 mps 751 mmHg 65%
    23:00 +34°C° 0 mm 2 mps 751 mmHg 65%
    Show more